Cozumel Airport, Mexico

8:27 AM EST on February 14, 2016 (GMT -0500)
Cozumel International

Weather History for MMCZ - September, 2012

Change the Weather History Date:

Sunday, September 2, 2012

  Actual Average Record
Temperature  
Mean Temperature 78 °F -  
Max Temperature 86 °F 89 °F 93 °F (1998)
Min Temperature 71 °F 76 °F 69 °F (2013)
Cooling Degree Days 14    
Growing Degree Days 28 (Base 50)    
Moisture  
Dew Point 73 °F    
Average Humidity 84    
Maximum Humidity 100    
Minimum Humidity 66    
Precipitation  
Precipitation 0.00 in - - ()
Sea Level Pressure  
Sea Level Pressure 29.99 in    
Wind  
Wind Speed 4 mph ()    
Max Wind Speed 14 mph    
Max Gust Speed -    
Visibility 7.0 miles    
Events Rain    
Averages and records for this station are not official NWS values.
T = Trace of Precipitation, MM = Missing Value Source: Averaged Metar Reports

Daily Weather History Graph

Daily Weather History Graph

Search for Another Location

Airport or City:

Trip Planner

Search our weather history database for the weather conditions in past years. The results will help you decide how hot, cold, wet, or windy it might be!

Date:

Astronomy

Sep. 02, 2012 Rise Set
Actual Time 6:32 AM CDT 7:01 PM CDT
Civil Twilight 6:09 AM CDT 7:24 PM CDT
Nautical Twilight 5:43 AM CDT 7:50 PM CDT
Astronomical Twilight 5:17 AM CDT 8:16 PM CDT
Moon 8:18 PM CDT (9/2) 8:14 AM CDT (9/2)
Length of Visible Light 13h 14m
Length of Day
12h 29m
Waning Gibbous, 95% of the Moon is Illuminated
Sep 2
Waning Gibbous
Sep 8
Last Quarter
Sep 15
New
Sep 22
First Quarter
Sep 29
Full

Hourly Weather History & Observations

Time (CDT) Temp. Heat Index Dew Point Humidity Pressure Visibility Wind Dir Wind Speed Gust Speed Precip Events Conditions
12:42 AM 73.4 °F - 71.6 °F 94% 29.98 in 7.0 mi East 5.8 mph - N/A   Partly Cloudy
1:40 AM 73.4 °F - 71.6 °F 94% 29.99 in 7.0 mi East 4.6 mph - N/A   Partly Cloudy
2:46 AM 73.4 °F - 71.6 °F 94% 29.98 in 6.0 mi Calm Calm - N/A Rain Light Rain
3:42 AM 73.4 °F - 73.4 °F 100% 30.01 in 7.0 mi Calm Calm - N/A   Scattered Clouds
4:51 AM 73.4 °F - 73.4 °F 100% 29.98 in 7.0 mi Calm Calm - N/A   Scattered Clouds
5:47 AM 71.6 °F - 71.6 °F 100% 29.99 in 7.0 mi Calm Calm - N/A   Scattered Clouds
6:47 AM 71.6 °F - 71.6 °F 100% 29.96 in 7.0 mi Calm Calm - N/A   Scattered Clouds
7:40 AM 75.2 °F - 75.2 °F 100% 30.00 in 7.0 mi Calm Calm - N/A   Scattered Clouds
8:40 AM 80.6 °F 86.2 °F 75.2 °F 84% 30.02 in 7.0 mi NE 6.9 mph - N/A   Scattered Clouds
9:40 AM 82.4 °F 88.2 °F 73.4 °F 74% 30.06 in 7.0 mi ENE 9.2 mph - N/A   Scattered Clouds
10:40 AM 84.2 °F 90.9 °F 73.4 °F 70% 30.03 in 7.0 mi ENE 11.5 mph - N/A   Scattered Clouds
11:40 AM 84.2 °F 90.9 °F 73.4 °F 70% 30.03 in 7.0 mi ENE 13.8 mph - N/A   Scattered Clouds
12:40 PM 86.0 °F 93.4 °F 73.4 °F 66% 29.99 in 7.0 mi NE 10.4 mph - N/A   Scattered Clouds
1:40 PM 86.0 °F 93.4 °F 73.4 °F 66% 30.00 in 7.0 mi NE 11.5 mph - N/A   Scattered Clouds
2:55 PM 86.0 °F 93.4 °F 73.4 °F 66% 29.97 in 7.0 mi ENE 10.4 mph - N/A   Scattered Clouds
3:43 PM 86.0 °F 93.4 °F 73.4 °F 66% 29.99 in 7.0 mi East 9.2 mph - N/A   Scattered Clouds
4:50 PM 84.2 °F 90.9 °F 73.4 °F 70% 29.96 in 7.0 mi ENE 11.5 mph - N/A   Scattered Clouds
5:45 PM 82.4 °F 88.2 °F 73.4 °F 74% 29.95 in 7.0 mi East 8.1 mph - N/A   Scattered Clouds
6:47 PM 80.6 °F 84.6 °F 71.6 °F 74% 29.93 in 7.0 mi East 4.6 mph - N/A   Scattered Clouds
7:47 PM 77.0 °F - 73.4 °F 89% 29.97 in 7.0 mi Calm Calm - N/A   Scattered Clouds
8:47 PM 77.0 °F - 73.4 °F 89% 29.99 in 7.0 mi Calm Calm - N/A   Scattered Clouds
9:43 PM 75.2 °F - 73.4 °F 94% 30.03 in 7.0 mi Calm Calm - N/A   Mostly Cloudy
10:45 PM 75.2 °F - 73.4 °F 94% 30.01 in 7.0 mi Calm Calm - N/A   Mostly Cloudy
11:46 PM 73.4 °F - 71.6 °F 94% 30.00 in 7.0 mi Calm Calm - N/A   Scattered Clouds